When you browse on this site, cookies collect data to enhance your experience and personalize the content and advertising you see.
Visit our Privacy Policy to learn more. By continuing to use the site, you agree to this use of cookies and data.
  • In Switzerland
  • List of Countries
  • For 7 days
  • Water Temperature
  • Satellite Maps
  • Weather Map
  • Weather Widgets
  • user-avatar
    Login

    Hourly Weather Makowszczyzna

    Today, 27 May, Monday

    Time Temperature Precipitation Wind Pressure Humidity
    00:00 +14°C° 0 mm 3 mps 743 mmHg 86%
    01:00 +13°C° 0 mm 3 mps 743 mmHg 88%
    02:00 +13°C° 0 mm 3 mps 743 mmHg 90%
    03:00 +13°C° 0 mm 3 mps 742 mmHg 91%
    04:00 +12°C° 0 mm 3 mps 742 mmHg 92%
    05:00 +14°C° 0 mm 3 mps 742 mmHg 86%
    06:00 +17°C° 0 mm 4 mps 742 mmHg 80%
    07:00 +18°C° 0 mm 4 mps 742 mmHg 74%
    08:00 +20°C° 0 mm 4 mps 742 mmHg 69%
    09:00 +22°C° 0 mm 4 mps 742 mmHg 63%
    10:00 +23°C° 0 mm 4 mps 742 mmHg 57%
    11:00 +25°C° 0.1 mm 4 mps 741 mmHg 56%
    12:00 +25°C° 0.1 mm 4 mps 741 mmHg 55%
    13:00 +26°C° 0.1 mm 4 mps 741 mmHg 54%
    14:00 +25°C° 0.6 mm 3 mps 741 mmHg 57%
    15:00 +25°C° 0.6 mm 3 mps 740 mmHg 60%
    16:00 +24°C° 0.6 mm 3 mps 740 mmHg 63%
    17:00 +23°C° 0.5 mm 2 mps 740 mmHg 69%
    18:00 +21°C° 0.5 mm 2 mps 740 mmHg 75%
    19:00 +20°C° 0.5 mm 2 mps 740 mmHg 80%
    20:00 +19°C° 0.3 mm 2 mps 739 mmHg 84%
    21:00 +19°C° 0.3 mm 3 mps 739 mmHg 87%
    22:00 +18°C° 0.3 mm 3 mps 739 mmHg 91%
    23:00 +18°C° 1.2 mm 4 mps 739 mmHg 91%

    Tomorrow, 28 May, Tuesday

    Time Temperature Precipitation Wind Pressure Humidity
    00:00 +17°C° 1.2 mm 4 mps 738 mmHg 92%
    01:00 +16°C° 1.2 mm 5 mps 738 mmHg 92%
    02:00 +17°C° 0.9 mm 4 mps 738 mmHg 93%
    03:00 +16°C° 0.9 mm 3 mps 737 mmHg 94%
    04:00 +16°C° 0.9 mm 3 mps 737 mmHg 94%
    05:00 +16°C° 0 mm 3 mps 737 mmHg 92%
    06:00 +17°C° 0 mm 3 mps 737 mmHg 90%
    07:00 +17°C° 0 mm 3 mps 737 mmHg 88%
    08:00 +17°C° 0.1 mm 4 mps 737 mmHg 86%
    09:00 +18°C° 0.1 mm 4 mps 737 mmHg 84%
    10:00 +17°C° 0.1 mm 5 mps 737 mmHg 82%
    11:00 +19°C° 0.2 mm 5 mps 737 mmHg 80%
    12:00 +19°C° 0.2 mm 4 mps 737 mmHg 78%
    13:00 +20°C° 0.2 mm 4 mps 737 mmHg 76%
    14:00 +19°C° 0.5 mm 5 mps 737 mmHg 80%
    15:00 +17°C° 0.5 mm 5 mps 737 mmHg 85%
    16:00 +16°C° 0.5 mm 6 mps 737 mmHg 89%
    17:00 +15°C° 0.3 mm 6 mps 738 mmHg 90%
    18:00 +14°C° 0.3 mm 7 mps 738 mmHg 91%
    19:00 +12°C° 0.3 mm 7 mps 739 mmHg 93%
    20:00 +11°C° 1.5 mm 6 mps 739 mmHg 93%
    21:00 +11°C° 1.5 mm 6 mps 740 mmHg 93%
    22:00 +12°C° 1.5 mm 5 mps 740 mmHg 93%
    23:00 +10°C° 0.9 mm 5 mps 741 mmHg 92%

    Day after tomorrow, 29 May, Wednesday

    Time Temperature Precipitation Wind Pressure Humidity
    00:00 +10°C° 0.9 mm 5 mps 741 mmHg 92%
    01:00 +9°C° 0.9 mm 5 mps 742 mmHg 91%
    02:00 +8°C° 0.2 mm 5 mps 742 mmHg 90%
    03:00 +8°C° 0.2 mm 5 mps 743 mmHg 90%
    04:00 +7°C° 0.2 mm 5 mps 743 mmHg 89%
    05:00 +7°C° 0 mm 4 mps 744 mmHg 88%
    06:00 +7°C° 0 mm 4 mps 744 mmHg 87%
    07:00 +8°C° 0 mm 3 mps 745 mmHg 86%
    08:00 +8°C° 0 mm 4 mps 745 mmHg 81%
    09:00 +11°C° 0 mm 4 mps 746 mmHg 77%
    10:00 +12°C° 0 mm 4 mps 746 mmHg 72%
    11:00 +13°C° 0 mm 4 mps 746 mmHg 67%
    12:00 +14°C° 0 mm 4 mps 746 mmHg 62%
    13:00 +15°C° 0 mm 4 mps 746 mmHg 57%
    14:00 +17°C° 0 mm 4 mps 746 mmHg 58%
    15:00 +17°C° 0 mm 4 mps 746 mmHg 58%
    16:00 +17°C° 0 mm 4 mps 746 mmHg 59%
    17:00 +15°C° 0 mm 4 mps 746 mmHg 65%
    18:00 +14°C° 0 mm 3 mps 747 mmHg 70%
    19:00 +14°C° 0 mm 2 mps 747 mmHg 76%
    20:00 +13°C° 0 mm 2 mps 747 mmHg 78%
    21:00 +12°C° 0 mm 2 mps 747 mmHg 80%
    22:00 +10°C° 0 mm 2 mps 748 mmHg 82%
    23:00 +10°C° 0 mm 2 mps 748 mmHg 82%

    30 May, Thursday

    Time Temperature Precipitation Wind Pressure Humidity
    00:00 +10°C° 0 mm 2 mps 748 mmHg 82%
    01:00 +10°C° 0 mm 2 mps 748 mmHg 81%
    02:00 +9°C° 0 mm 2 mps 748 mmHg 80%
    03:00 +9°C° 0 mm 2 mps 748 mmHg 79%
    04:00 +9°C° 0 mm 2 mps 748 mmHg 77%
    05:00 +10°C° 0 mm 2 mps 749 mmHg 75%
    06:00 +10°C° 0 mm 2 mps 749 mmHg 73%
    07:00 +10°C° 0 mm 2 mps 749 mmHg 71%
    08:00 +12°C° 0 mm 2 mps 749 mmHg 69%
    09:00 +12°C° 0 mm 1 mps 749 mmHg 67%
    10:00 +12°C° 0 mm 1 mps 749 mmHg 65%
    11:00 +13°C° 0 mm 1 mps 749 mmHg 64%
    12:00 +13°C° 0 mm 1 mps 749 mmHg 63%
    13:00 +13°C° 0 mm 1 mps 749 mmHg 62%
    14:00 +14°C° 0 mm 1 mps 748 mmHg 59%
    15:00 +15°C° 0 mm 1 mps 748 mmHg 57%
    16:00 +16°C° 0 mm 1 mps 748 mmHg 55%
    17:00 +15°C° 0 mm 1 mps 748 mmHg 59%
    18:00 +14°C° 0 mm 1 mps 748 mmHg 63%
    19:00 +14°C° 0 mm 1 mps 748 mmHg 66%
    20:00 +13°C° 0 mm 2 mps 748 mmHg 69%
    21:00 +12°C° 0 mm 2 mps 748 mmHg 71%
    22:00 +9°C° 0 mm 2 mps 748 mmHg 74%
    23:00 +9°C° 0 mm 3 mps 747 mmHg 76%

    31 May, Friday

    Time Temperature Precipitation Wind Pressure Humidity
    00:00 +9°C° 0 mm 3 mps 747 mmHg 78%
    01:00 +9°C° 0 mm 3 mps 747 mmHg 81%
    02:00 +9°C° 0 mm 3 mps 746 mmHg 84%
    03:00 +9°C° 0 mm 3 mps 746 mmHg 87%
    04:00 +9°C° 0 mm 3 mps 746 mmHg 90%
    05:00 +11°C° 0 mm 3 mps 745 mmHg 88%
    06:00 +12°C° 0 mm 3 mps 745 mmHg 85%
    07:00 +14°C° 0 mm 4 mps 745 mmHg 83%
    08:00 +17°C° 0 mm 4 mps 744 mmHg 78%
    09:00 +19°C° 0 mm 4 mps 744 mmHg 74%
    10:00 +20°C° 0 mm 4 mps 744 mmHg 69%
    11:00 +19°C° 1.3 mm 6 mps 744 mmHg 74%
    12:00 +16°C° 1.3 mm 7 mps 745 mmHg 80%
    13:00 +15°C° 1.3 mm 9 mps 745 mmHg 85%
    14:00 +11°C° 1.4 mm 9 mps 746 mmHg 86%
    15:00 +9°C° 1.4 mm 8 mps 748 mmHg 87%
    16:00 +6°C° 1.4 mm 8 mps 749 mmHg 88%
    17:00 +7°C° 0.1 mm 6 mps 750 mmHg 85%
    18:00 +8°C° 0.1 mm 5 mps 751 mmHg 83%
    19:00 +9°C° 0.1 mm 3 mps 751 mmHg 81%
    20:00 +7°C° 0 mm 4 mps 752 mmHg 79%
    21:00 +7°C° 0 mm 4 mps 752 mmHg 77%
    22:00 +6°C° 0 mm 4 mps 753 mmHg 76%
    23:00 +6°C° 0 mm 4 mps 753 mmHg 78%

    1 June, Saturday

    Time Temperature Precipitation Wind Pressure Humidity
    00:00 +5°C° 0 mm 4 mps 753 mmHg 81%
    01:00 +4°C° 0 mm 3 mps 754 mmHg 83%
    02:00 +4°C° 0 mm 3 mps 754 mmHg 85%
    03:00 +4°C° 0 mm 3 mps 754 mmHg 88%
    04:00 +3°C° 0 mm 3 mps 754 mmHg 90%
    05:00 +5°C° 0 mm 4 mps 755 mmHg 86%
    06:00 +6°C° 0 mm 4 mps 755 mmHg 83%
    07:00 +8°C° 0 mm 4 mps 755 mmHg 79%
    08:00 +9°C° 0 mm 5 mps 755 mmHg 73%
    09:00 +10°C° 0 mm 5 mps 755 mmHg 68%
    10:00 +13°C° 0 mm 5 mps 755 mmHg 62%
    11:00 +12°C° 0 mm 5 mps 755 mmHg 63%
    12:00 +11°C° 0 mm 6 mps 755 mmHg 63%
    13:00 +11°C° 0 mm 6 mps 755 mmHg 63%
    14:00 +12°C° 0 mm 5 mps 755 mmHg 62%
    15:00 +13°C° 0 mm 5 mps 755 mmHg 62%
    16:00 +13°C° 0 mm 5 mps 755 mmHg 61%
    17:00 +12°C° 0 mm 4 mps 755 mmHg 66%
    18:00 +11°C° 0 mm 3 mps 755 mmHg 72%
    19:00 +11°C° 0 mm 3 mps 755 mmHg 77%
    20:00 +9°C° 0 mm 3 mps 756 mmHg 79%
    21:00 +8°C° 0 mm 3 mps 756 mmHg 82%
    22:00 +7°C° 0 mm 3 mps 756 mmHg 84%
    23:00 +7°C° 0 mm 2 mps 756 mmHg 85%
    Show more